Regional Weather Roundup
Issued by NWS Newport/Morehead, NC

Current Version | Previous Version | Text Only | Print | Product List | Glossary On
Versions: 1 2 3 4 5 6 7 8 9 10 11 12 13 14 15 16 17 18 19 20 21 22 23 24 25 26 27 28 29 30 31 32 33 34 35 36 37 38 39 40 41 42 43 44 45 46 47 48 49 50
000
ASUS42 KMHX 201725
RWRMHX
WEATHER ROUNDUP FOR EASTERN NORTH CAROLINA
NATIONAL WEATHER SERVICE NEWPORT/MOREHEAD CITY NC
100 PM EDT SUN AUG 20 2017

NOTE: "FAIR" INDICATES FEW OR NO CLOUDS BELOW 12,000 FEET
WITH NO SIGNIFICANT WEATHER AND/OR OBSTRUCTIONS TO VISIBILITY

NCZ015>017-031-032-045>047-102-103-201800-
NORTH COAST

CITY           SKY/WX    TMP DP  RH WIND       PRES   REMARKS
EDENTON        SUNNY     91  73  54 CALM      30.11S
ELIZABETH CITY SUNNY     89  74  60 E6        30.10S
KITTY HAWK     MOSUNNY   82  75  78 CALM      30.10R
MANTEO         CLOUDY    85  74  71 N8        30.11S

$$

NCZ045>047-081-094-103-104-201800-
CENTRAL COAST

CITY           SKY/WX    TMP DP  RH WIND       PRES   REMARKS
FRISCO         CLOUDY    84  77  79 CALM      30.10F

$$

NCZ095-097-098-100-101-201800-
SOUTHERN COAST

CITY           SKY/WX    TMP DP  RH WIND       PRES   REMARKS
BEAUFORT       CLOUDY    85  77  77 E6        30.10R
CEDAR ISLAND   NOT AVBL
JACKSONVILLE   MOSUNNY   86  78  77 NE5       30.09S
PINEY ISLAND   PTSUNNY  N/A N/A N/A VRB6      30.10R
WILMINGTON     SUNNY     90  77  65 CALM      30.08F HX 103


$$

NCZ011>013-027>030-043-044-078>080-089-090>093-098-201800-
COASTAL PLAIN

CITY           SKY/WX    TMP DP  RH WIND       PRES   REMARKS
AHOSKIE          N/A     87  70  58 CALM      30.10F
CLINTON        MOSUNNY   91  69  48 CALM      30.09F
ELIZABETHTOWN  NOT AVBL
GOLDSBORO      MOSUNNY   90  72  55 VRB5      30.09F
GREENVILLE     MOSUNNY   90  70  51 N5        30.11S
HAVELOCK       CLOUDY    89  75  63 N5        30.11R
KENANSVILLE    MOSUNNY   90  70  51 N6        30.10S
KINSTON        NOT AVBL
NEW BERN       PTSUNNY   87  74  64 E3        30.11S
RICHLANDS      MOSUNNY   88  75  65 CALM      30.10F
ROCKY MOUNT    SUNNY     91  67  44 VRB5      30.10F
WASHINGTON     MOSUNNY   88  73  60 CALM      30.11R
WHITEVILLE     PTSUNNY   87  77  72 CALM      30.09F

$$

AMZ130-135-150-152-154-156-158-170-250-252-270-ANZ085-086-088-633-658-670-201800-
MARINE OBSERVATIONS

STATION/POSITION TIME  TEMP    WIND        PRES    WAVE   SWELL
                       AIR SEA DIR/SP/G            HT/PER HT/PER
                 (UTC) (F)     (DEG/KT/KT) (MB)    (FT/S) (FT/S)
CHESAPEAKE LIGHT NOT AVBL
64 E VA BEACH    NOT AVBL
DUCK             NOT AVBL
2 E DUCK         NOT AVBL
OREGON INLET     NOT AVBL
13E OREGON INLT  NOT AVBL
HATTERAS CG      NOT AVBL
DIAMOND BUOY     NOT AVBL
CAPE LOOKOUT     NOT AVBL
BEAUFORT LAB     NOT AVBL
30 SE NEW RVR IN NOT AVBL
30 SE NEW RVR IN NOT AVBL
27 SE WRIGHTSVLE NOT AVBL
5 SE WRIGHTSVLE  NOT AVBL
225 S CAPE HAT   NOT AVBL
41 SE CHARLESTON NOT AVBL

$$



USA.gov is the U.S. government's official web portal to all federal, state and local government web resources and services.